Location: Invercargill
(46.4000°S, 168.3500°E)
Time: 19:45:50
(UTC+12:00)

Cosmos 1825 Rocket - Pass Details

Date: 14 May 2021
Orbit: 604 x 630 km, 82.5° (Epoch: 14 June)

Event Time Altitude Azimuth Distance (km) Brightness Sun altitude
Rises 17:47:55 0° 357° (N) 2,901 7.4 -4.4°
Reaches altitude 10° 17:50:08 10° 358° (N) 1,999 6.5 -4.8°
Maximum altitude 17:54:34 76° 83° (E) 652 3.6 -5.5°
Drops below altitude 10° 17:59:01 10° 168° (SSE) 2,012 5.9 -6.2°
Sets 18:01:16 0° 169° (S) 2,922 6.7 -6.5°
